Overview Statistics Trail Chart Weather Telemetry Raw packets
 

This is the latest recevied weather packets stored in our database for station/object DO1BDB-12. If no packets are shown the sender has not sent any weather packets the latest 10 day(s).

<< 316 317 318 319 320 321 322 >>
Time Temp. Humidity Pressure Rain* Wind** Luminosity Snow
1788168895 25° C 56% 100.9 hPa - - - -
1788168829 25° C 59% 100.9 hPa - - - -
1788168764 23.89° C 61% 100.9 hPa - - - -
1788168698 23.33° C 61% 100.9 hPa - - - -
1788168632 23.33° C 61% 100.9 hPa - - - -
1788168567 23.33° C 61% 100.9 hPa - - - -
1788168500 23.89° C 61% 100.9 hPa - - - -
1788168434 23.33° C 62% 100.9 hPa - - - -
1788168369 23.33° C 63% 100.9 hPa - - - -
1788168303 23.33° C 61% 100.9 hPa - - - -
1788168237 23.33° C 61% 100.9 hPa - - - -
1788168171 23.33° C 61% 100.9 hPa - - - -
1788168105 23.33° C 62% 100.9 hPa - - - -
1788168039 23.33° C 63% 100.9 hPa - - - -
1788167973 23.33° C 61% 100.9 hPa - - - -
1788167908 23.33° C 63% 100.9 hPa - - - -
1788167842 23.33° C 63% 100.9 hPa - - - -
1788167790 22.78° C 62% 100.9 hPa - - - -
1788167711 22.78° C 62% 101 hPa - - - -
1788167644 23.33° C 63% 101 hPa - - - -
1788167578 23.89° C 63% 101 hPa - - - -
1788167513 23.89° C 61% 101 hPa - - - -
1788167447 23.89° C 63% 100.9 hPa - - - -
1788167381 24.44° C 62% 101 hPa - - - -
1788167315 23.33° C 65% 101 hPa - - - -

* Rain since midnight (hover to see other rain measurements)
** Current wind speed in m/s (hover to see current wind gust speed)